TimeCDT,TemperatureF,Dew PointF,Humidity,Sea Level PressureIn,VisibilityMPH,Wind Direction,Wind SpeedMPH,Gust SpeedMPH,PrecipitationIn,Events,Conditions,WindDirDegrees,DateUTC
12:15 AM,62.6,48.2,59,29.81,10.0,SSE,17.3,20.7,N/A,,Clear,160,2013-09-24 05:15:00
12:35 AM,62.6,48.2,59,29.81,10.0,SSE,18.4,25.3,N/A,,Clear,160,2013-09-24 05:35:00
12:55 AM,62.6,48.2,59,29.82,10.0,South,16.1,21.9,N/A,,Clear,170,2013-09-24 05:55:00
1:15 AM,60.8,48.2,63,29.82,10.0,South,16.1,23.0,N/A,,Clear,170,2013-09-24 06:15:00
1:35 AM,60.8,48.2,63,29.82,10.0,South,15.0,24.2,N/A,,Clear,170,2013-09-24 06:35:00
1:55 AM,60.8,48.2,63,29.83,10.0,South,16.1,21.9,N/A,,Clear,170,2013-09-24 06:55:00
2:15 AM,60.8,48.2,63,29.83,10.0,South,11.5,18.4,N/A,,Clear,180,2013-09-24 07:15:00
2:35 AM,59.0,48.2,67,29.83,10.0,South,11.5,-,N/A,,Clear,180,2013-09-24 07:35:00
2:55 AM,59.0,48.2,67,29.84,10.0,South,10.4,-,N/A,,Clear,190,2013-09-24 07:55:00
3:15 AM,57.2,48.2,72,29.84,10.0,South,8.1,-,N/A,,Clear,180,2013-09-24 08:15:00
3:35 AM,57.2,48.2,72,29.85,10.0,SSW,6.9,-,N/A,,Clear,200,2013-09-24 08:35:00
3:55 AM,55.4,48.2,77,29.85,10.0,South,6.9,-,N/A,,Clear,190,2013-09-24 08:55:00
4:15 AM,55.4,48.2,77,29.85,10.0,South,6.9,-,N/A,,Clear,190,2013-09-24 09:15:00
4:35 AM,55.4,48.2,77,29.86,10.0,Calm,Calm,-,N/A,,Clear,0,2013-09-24 09:35:00
4:55 AM,53.6,48.2,82,29.86,10.0,South,4.6,-,N/A,,Clear,180,2013-09-24 09:55:00
5:15 AM,51.8,48.2,88,29.86,10.0,South,3.5,-,N/A,,Clear,180,2013-09-24 10:15:00
5:35 AM,51.8,48.2,88,29.87,10.0,Calm,Calm,-,N/A,,Clear,0,2013-09-24 10:35:00
5:55 AM,53.6,48.2,82,29.87,10.0,Calm,Calm,-,N/A,,Clear,0,2013-09-24 10:55:00
6:15 AM,53.6,48.2,82,29.87,10.0,Calm,Calm,-,N/A,,Clear,0,2013-09-24 11:15:00
6:35 AM,51.8,48.2,88,29.88,10.0,Calm,Calm,-,N/A,,Clear,0,2013-09-24 11:35:00
6:55 AM,51.8,48.2,88,29.89,10.0,SSW,3.5,-,N/A,,Clear,210,2013-09-24 11:55:00
7:15 AM,51.8,48.2,88,29.90,10.0,Calm,Calm,-,N/A,,Clear,0,2013-09-24 12:15:00
7:35 AM,53.6,48.2,82,29.90,10.0,Calm,Calm,-,N/A,,Clear,0,2013-09-24 12:35:00
7:55 AM,53.6,48.2,82,29.90,10.0,Calm,Calm,-,N/A,,Clear,0,2013-09-24 12:55:00
8:15 AM,53.6,50.0,88,29.91,10.0,SSE,6.9,-,N/A,,Clear,160,2013-09-24 13:15:00
8:35 AM,55.4,50.0,82,29.90,10.0,Calm,Calm,-,N/A,,Clear,0,2013-09-24 13:35:00
8:55 AM,55.4,51.8,88,29.90,10.0,Calm,Calm,-,N/A,,Clear,0,2013-09-24 13:55:00
9:15 AM,57.2,50.0,77,29.92,10.0,South,6.9,-,N/A,,Unknown,190,2013-09-24 14:15:00
9:35 AM,57.2,50.0,77,29.92,10.0,SSW,8.1,-,N/A,,Clear,200,2013-09-24 14:35:00
9:55 AM,57.2,51.8,82,29.93,10.0,SSW,5.8,-,N/A,,Clear,210,2013-09-24 14:55:00
10:15 AM,57.2,50.0,77,29.93,10.0,South,8.1,-,N/A,,Clear,190,2013-09-24 15:15:00
10:35 AM,59.0,51.8,77,29.94,10.0,SSW,8.1,-,N/A,,Scattered Clouds,210,2013-09-24 15:35:00
10:55 AM,59.0,51.8,77,29.94,10.0,SSW,6.9,-,N/A,,Mostly Cloudy,210,2013-09-24 15:55:00
11:15 AM,60.8,51.8,72,29.94,10.0,SW,5.8,-,N/A,,Mostly Cloudy,220,2013-09-24 16:15:00
11:35 AM,60.8,51.8,72,29.94,10.0,SSW,5.8,-,N/A,,Scattered Clouds,200,2013-09-24 16:35:00
11:55 AM,64.4,53.6,68,29.94,10.0,SW,5.8,-,N/A,,Mostly Cloudy,230,2013-09-24 16:55:00
12:15 PM,64.4,53.6,68,29.94,10.0,SW,4.6,-,N/A,,Scattered Clouds,230,2013-09-24 17:15:00
12:35 PM,66.2,53.6,64,29.94,10.0,South,3.5,-,N/A,,Scattered Clouds,180,2013-09-24 17:35:00
12:55 PM,66.2,53.6,64,29.94,10.0,SW,3.5,-,N/A,,Mostly Cloudy,230,2013-09-24 17:55:00
1:15 PM,66.2,51.8,60,29.94,10.0,Calm,Calm,-,N/A,,Mostly Cloudy,0,2013-09-24 18:15:00
1:35 PM,64.4,53.6,68,29.94,10.0,WSW,3.5,-,N/A,,Overcast,240,2013-09-24 18:35:00
1:55 PM,64.4,51.8,64,29.94,10.0,Calm,Calm,-,N/A,,Overcast,0,2013-09-24 18:55:00
2:15 PM,64.4,51.8,64,29.93,10.0,Calm,Calm,-,N/A,,Overcast,0,2013-09-24 19:15:00
2:35 PM,64.4,51.8,64,29.93,10.0,Calm,Calm,-,N/A,,Overcast,0,2013-09-24 19:35:00
2:55 PM,66.2,51.8,60,29.93,10.0,Calm,Calm,-,N/A,,Mostly Cloudy,0,2013-09-24 19:55:00
3:15 PM,64.4,51.8,64,29.93,10.0,Calm,Calm,-,N/A,,Overcast,0,2013-09-24 20:15:00
3:35 PM,64.4,51.8,64,29.92,10.0,SSE,5.8,-,N/A,,Overcast,160,2013-09-24 20:35:00
3:55 PM,64.4,53.6,68,29.92,10.0,SSE,4.6,-,N/A,,Overcast,150,2013-09-24 20:55:00
4:15 PM,66.2,51.8,60,29.92,10.0,South,6.9,-,N/A,,Overcast,170,2013-09-24 21:15:00
4:35 PM,66.2,51.8,60,29.92,10.0,South,5.8,-,N/A,,Mostly Cloudy,190,2013-09-24 21:35:00
4:55 PM,71.6,51.8,50,29.92,10.0,South,5.8,-,N/A,,Mostly Cloudy,190,2013-09-24 21:55:00
5:15 PM,71.6,50.0,46,29.92,10.0,South,6.9,-,N/A,,Clear,170,2013-09-24 22:15:00
5:35 PM,71.6,48.2,43,29.91,10.0,South,6.9,-,N/A,,Clear,170,2013-09-24 22:35:00
5:55 PM,71.6,48.2,43,29.91,10.0,SSE,8.1,-,N/A,,Clear,160,2013-09-24 22:55:00
6:15 PM,69.8,51.8,53,29.91,10.0,Calm,Calm,-,N/A,,Clear,0,2013-09-24 23:15:00
6:35 PM,69.8,51.8,53,29.91,10.0,SSE,4.6,-,N/A,,Clear,150,2013-09-24 23:35:00
6:55 PM,66.2,50.0,56,29.91,10.0,Calm,Calm,-,N/A,,Clear,0,2013-09-24 23:55:00
7:15 PM,62.6,48.2,59,29.91,10.0,Calm,Calm,-,N/A,,Clear,0,2013-09-25 00:15:00
7:35 PM,60.8,46.4,59,29.91,10.0,Calm,Calm,-,N/A,,Clear,0,2013-09-25 00:35:00
7:55 PM,57.2,44.6,63,29.91,10.0,Calm,Calm,-,N/A,,Clear,0,2013-09-25 00:55:00
8:15 PM,53.6,42.8,67,29.91,10.0,Calm,Calm,-,N/A,,Clear,0,2013-09-25 01:15:00
8:35 PM,55.4,48.2,77,29.91,10.0,Calm,Calm,-,N/A,,Clear,0,2013-09-25 01:35:00
8:55 PM,55.4,48.2,77,29.91,10.0,Calm,Calm,-,N/A,,Clear,0,2013-09-25 01:55:00
9:15 PM,53.6,48.2,82,29.91,10.0,Calm,Calm,-,N/A,,Clear,0,2013-09-25 02:15:00
9:35 PM,55.4,48.2,77,29.92,10.0,Calm,Calm,-,N/A,,Clear,0,2013-09-25 02:35:00
9:55 PM,53.6,48.2,82,29.91,10.0,Calm,Calm,-,N/A,,Clear,0,2013-09-25 02:55:00
10:15 PM,51.8,46.4,82,29.92,10.0,Calm,Calm,-,N/A,,Clear,0,2013-09-25 03:15:00
10:35 PM,51.8,46.4,82,29.92,10.0,Calm,Calm,-,N/A,,Clear,0,2013-09-25 03:35:00
10:55 PM,50.0,46.4,87,29.92,10.0,Calm,Calm,-,N/A,,Clear,0,2013-09-25 03:55:00
11:15 PM,50.0,46.4,87,29.92,10.0,Calm,Calm,-,N/A,,Clear,0,2013-09-25 04:15:00
11:35 PM,51.8,46.4,82,29.92,10.0,Calm,Calm,-,N/A,,Clear,0,2013-09-25 04:35:00
11:55 PM,51.8,46.4,82,29.92,10.0,Calm,Calm,-,N/A,,Clear,0,2013-09-25 04:55:00